Tillbaka till svenska Fidonet
English   Information   Debug  
FILM   0/18
FNEWS_PUBLISH   4926
FN_SYSOP   42201
FN_SYSOP_OLD1   71952
FTP_FIDO   0/2
FTSC_PUBLIC   0/13972
FUNNY   0/4886
GENEALOGY.EUR   0/71
GET_INFO   105
GOLDED   0/408
HAM   2701/16660
HOLYSMOKE   0/6791
HOT_SITES   0/1
HTMLEDIT   0/71
HUB203   466
HUB_100   264
HUB_400   39
HUMOR   0/29
IC   0/2851
INTERNET   0/424
INTERUSER   0/3
IP_CONNECT   719
JAMNNTPD   0/233
JAMTLAND   0/47
KATTY_KORNER   0/41
LAN   0/16
LINUX-USER   0/19
LINUXHELP   0/1155
LINUX   0/22300
LINUX_BBS   0/957
mail   18.68
mail_fore_ok   249
MENSA   0/341
MODERATOR   0/102
MONTE   0/992
MOSCOW_OKLAHOMA   0/1245
MUFFIN   0/783
MUSIC   0/321
N203_STAT   938
N203_SYSCHAT   313
NET203   321
NET204   69
NET_DEV   0/10
NORD.ADMIN   0/101
NORD.CHAT   0/2572
NORD.FIDONET   189
NORD.HARDWARE   0/28
NORD.KULTUR   0/114
NORD.PROG   0/32
NORD.SOFTWARE   0/88
NORD.TEKNIK   0/58
NORD   0/453
OCCULT_CHAT   0/93
OS2BBS   0/787
OS2DOSBBS   0/580
OS2HW   0/42
OS2INET   0/37
OS2LAN   0/134
OS2PROG   0/36
OS2REXX   0/113
OS2USER-L   207
OS2   0/4830
OSDEBATE   0/18996
PASCAL   0/490
PERL   0/457
PHP   0/45
POINTS   0/405
POLITICS   0/29554
POL_INC   0/14731
PSION   103
R20_ADMIN   1133
R20_AMATORRADIO   0/2
R20_BEST_OF_FIDONET   16
R20_CHAT   0/896
R20_DEPP   0/3
R20_DEV   400
R20_ECHO2   1830
R20_ECHOPRES   0/35
R20_ESTAT   0/719
R20_FIDONETPROG...
...RAM.MYPOINT
  0/2
R20_FIDONETPROGRAM   0/22
R20_FIDONET   0/248
R20_FILEFIND   0/24
R20_FILEFOUND   0/22
R20_HIFI   0/3
R20_INFO2   3723
R20_INTERNET   0/12940
R20_INTRESSE   0/60
R20_INTR_KOM   0/99
R20_KANDIDAT.CHAT   42
R20_KANDIDAT   28
R20_KOM_DEV   112
R20_KONTROLL   0/13360
R20_KORSET   0/18
R20_LOKALTRAFIK   0/24
R20_MODERATOR   0/1852
R20_NC   76
R20_NET200   245
R20_NETWORK.OTH...
...ERNETS
  0/13
R20_OPERATIVSYS...
...TEM.LINUX
  0/44
R20_PROGRAMVAROR   0/1
R20_REC2NEC   534
R20_SFOSM   0/341
R20_SF   0/108
R20_SPRAK.ENGLISH   0/1
R20_SQUISH   107
R20_TEST   2
R20_WORST_OF_FIDONET   20
RAR   0/9
RA_MULTI   106
RA_UTIL   0/162
REGCON.EUR   0/2068
REGCON   0/13
SCIENCE   0/1206
SF   0/239
SHAREWARE_SUPPORT   0/5146
SHAREWRE   0/14
SIMPSONS   0/169
STATS_OLD1   0/2539.065
STATS_OLD2   0/2530
STATS_OLD3   0/2395.095
STATS_OLD4   0/1692.25
SURVIVOR   0/495
SYSOPS_CORNER   0/3
SYSOP   0/84
TAGLINES   0/112
TEAMOS2   0/4530
TECH   0/2617
TEST.444   0/105
TRAPDOOR   0/19
TREK   0/755
TUB   0/290
UFO   0/40
UNIX   0/1316
USA_EURLINK   0/102
USR_MODEMS   0/1
VATICAN   0/2740
VIETNAM_VETS   0/14
VIRUS   0/378
VIRUS_INFO   0/201
VISUAL_BASIC   0/473
WHITEHOUSE   0/5187
WIN2000   0/101
WIN32   0/30
WIN95   0/4291
WIN95_OLD1   0/70272
WINDOWS   0/1517
WWB_SYSOP   0/419
WWB_TECH   0/810
ZCC-PUBLIC   0/1
ZEC   4

 
4DOS   0/134
ABORTION   0/7
ALASKA_CHAT   0/506
ALLFIX_FILE   0/1313
ALLFIX_FILE_OLD1   0/7997
ALT_DOS   0/152
AMATEUR_RADIO   0/1039
AMIGASALE   0/14
AMIGA   0/331
AMIGA_INT   0/1
AMIGA_PROG   0/20
AMIGA_SYSOP   0/26
ANIME   0/15
ARGUS   0/924
ASCII_ART   0/340
ASIAN_LINK   0/651
ASTRONOMY   0/417
AUDIO   0/92
AUTOMOBILE_RACING   0/105
BABYLON5   0/17862
BAG   135
BATPOWER   0/361
BBBS.ENGLISH   0/382
BBSLAW   0/109
BBS_ADS   0/5290
BBS_INTERNET   0/507
BIBLE   0/3563
BINKD   0/1119
BINKLEY   0/215
BLUEWAVE   0/2173
CABLE_MODEMS   0/25
CBM   0/46
CDRECORD   0/66
CDROM   0/20
CLASSIC_COMPUTER   0/378
COMICS   0/15
CONSPRCY   0/899
COOKING   41444
COOKING_OLD1   0/24719
COOKING_OLD2   0/40862
COOKING_OLD3   0/37489
COOKING_OLD4   0/35496
COOKING_OLD5   9370
C_ECHO   0/189
C_PLUSPLUS   0/31
DIRTY_DOZEN   0/201
DOORGAMES   0/2285
DOS_INTERNET   0/196
duplikat   6102
ECHOLIST   0/18295
EC_SUPPORT   0/318
ELECTRONICS   0/359
ELEKTRONIK.GER   1534
ENET.LINGUISTIC   0/13
ENET.POLITICS   0/4
ENET.SOFT   0/11701
ENET.SYSOP   34296
ENET.TALKS   0/32
ENGLISH_TUTOR   0/2000
EVOLUTION   0/1335
FDECHO   0/217
FDN_ANNOUNCE   0/7068
FIDONEWS   25062
FIDONEWS_OLD1   0/49742
FIDONEWS_OLD2   0/35949
FIDONEWS_OLD3   0/30874
FIDONEWS_OLD4   0/37224
FIDO_SYSOP   12922
FIDO_UTIL   0/180
FILEFIND   0/209
FILEGATE   0/212
Möte HAM, 16660 texter
 lista första sista föregående nästa
Text 3743, 880 rader
Skriven 2010-06-17 23:30:22 av Amsat List (1:323/120.0)
Ärende: [keps]  orb10168.amsa
=============================
[keps]  orb10168.amsa

Return-Path: <keps-bounces@amsat.org>
X-Rcpt: craig.healy@chowda.com
X-UIDL: 1276830744.30583

SB KEPS @ AMSAT  $ORB10168.O
Orbital Elements  10168.OSCAR

HR AMSAT ORBITAL ELEMENTS FOR OSCAR SATELLITES
FROM WA5QGD FORT WORTH,TX June 17, 2010
Send Subscribe/unsubscribe to KEPS at http://www.amsat.org/mailman/listinfo/kep
BID: ORB10168.O
TO ALL RADIO AMATEURS BT

Satellite: AO-07
Catalog number: 07530
Epoch time:      10168.60167851
Element set:     803
Inclination:      101.4003 deg
RA of node:       184.4522 deg
Eccentricity:    0.0011630
Arg of perigee:   274.6789 deg
Mean anomaly:     085.2953 deg
Mean motion:   12.53578647 rev/day
Decay rate:       -2.7e-07 rev/day^2
Epoch rev:           62850
Checksum:              294

Satellite: FO-29
Catalog number: 24278
Epoch time:      10167.95718020
Element set:    0339
Inclination:      098.5143 deg
RA of node:       357.1211 deg
Eccentricity:    0.0351236
Arg of perigee:   124.3796 deg
Mean anomaly:     239.1086 deg
Mean motion:   13.52951201 rev/day
Decay rate:       -4.2e-07 rev/day^2
Epoch rev:           68307
Checksum:              298

Satellite: SO-33
Catalog number: 25509
Epoch time:      10167.34992174
Element set:     735
Inclination:      031.4326 deg
RA of node:       153.2551 deg
Eccentricity:    0.0354512
Arg of perigee:   282.4854 deg
Mean anomaly:     073.6337 deg
Mean motion:   14.28308370 rev/day
Decay rate:        6.9e-07 rev/day^2
Epoch rev:           60793
Checksum:              306

Satellite: RS-22
Catalog number: 27939
Epoch time:      10168.67088107
Element set:     282
Inclination:      097.8926 deg
RA of node:       034.1366 deg
Eccentricity:    0.0014650
Arg of perigee:   060.6151 deg
Mean anomaly:     299.6507 deg
Mean motion:   14.63426601 rev/day
Decay rate:       1.04e-06 rev/day^2
Epoch rev:           35902
Checksum:              303

Satellite: VO-52
Catalog number: 28650
Epoch time:      10167.59303739
Element set:    0530
Inclination:      097.6918 deg
RA of node:       221.0512 deg
Eccentricity:    0.0025801
Arg of perigee:   279.2989 deg
Mean anomaly:     080.5321 deg
Mean motion:   14.81761514 rev/day
Decay rate:       5.51e-06 rev/day^2
Epoch rev:           27660
Checksum:              304

Satellite: SO-67
Catalog number: 35870
Epoch time:      10168.71822197
Element set:     830
Inclination:      097.3315 deg
RA of node:       217.8402 deg
Eccentricity:    0.0004709
Arg of perigee:   092.1419 deg
Mean anomaly:     055.7592 deg
Mean motion:   15.20922096 rev/day
Decay rate:       5.21e-06 rev/day^2
Epoch rev:            4153
Checksum:              298

Satellite: HO-68
Catalog number: 36122
Epoch time:      10168.62819210
Element set:     406
Inclination:      100.4684 deg
RA of node:       229.0529 deg
Eccentricity:    0.0007386
Arg of perigee:   338.6004 deg
Mean anomaly:     021.4799 deg
Mean motion:   13.16281014 rev/day
Decay rate:       -4.5e-07 rev/day^2
Epoch rev:            2427
Checksum:              278

/EX
SB KEPS @ AMSAT  $ORB10168.D
Orbital Elements  10168.MICROS

HR AMSAT ORBITAL ELEMENTS FOR THE MICROSATS
FROM WA5QGD FORT WORTH,TX June 17, 2010
Send Subscribe/unsubscribe to KEPS at http://www.amsat.org/mailman/listinfo/kep
BID: ORB10168.D
TO ALL RADIO AMATEURS BT

Satellite: UO-11
Catalog number: 14781
Epoch time:      10167.88707613
Element set:    0269
Inclination:      098.0550 deg
RA of node:       219.6279 deg
Eccentricity:    0.0008097
Arg of perigee:   236.4847 deg
Mean anomaly:     123.5576 deg
Mean motion:   14.79808274 rev/day
Decay rate:      -1.53e-06 rev/day^2
Epoch rev:           41176
Checksum:              334

Satellite: AO-16
Catalog number: 20439
Epoch time:      10167.56002936
Element set:    0923
Inclination:      098.3324 deg
RA of node:       125.4908 deg
Eccentricity:    0.0011085
Arg of perigee:   163.2265 deg
Mean anomaly:     196.9275 deg
Mean motion:   14.31863948 rev/day
Decay rate:       -1.1e-07 rev/day^2
Epoch rev:           06529
Checksum:              305

Satellite: LO-19
Catalog number: 20442
Epoch time:      10168.74561184
Element set:     833
Inclination:      098.2928 deg
RA of node:       132.4287 deg
Eccentricity:    0.0012325
Arg of perigee:   155.1495 deg
Mean anomaly:     205.0285 deg
Mean motion:   14.32095224 rev/day
Decay rate:      .00000000 rev/day^2
Epoch rev:            6563
Checksum:              273

Satellite: AO-27
Catalog number: 22825
Epoch time:      10168.78316372
Element set:     556
Inclination:      098.4852 deg
RA of node:       116.7181 deg
Eccentricity:    0.0007456
Arg of perigee:   267.9793 deg
Mean anomaly:     092.0537 deg
Mean motion:   14.29300161 rev/day
Decay rate:        6.6e-07 rev/day^2
Epoch rev:           87213
Checksum:              320

Satellite: IO-26
Catalog number: 22826
Epoch time:      10167.79864064
Element set:     291
Inclination:      098.4798 deg
RA of node:       116.3607 deg
Eccentricity:    0.0007993
Arg of perigee:   266.5358 deg
Mean anomaly:     093.4912 deg
Mean motion:   14.29555789 rev/day
Decay rate:       -1.0e-07 rev/day^2
Epoch rev:           87210
Checksum:              345

Satellite: GO-32
Catalog number: 25397
Epoch time:      10167.67908821
Element set:    0212
Inclination:      098.3113 deg
RA of node:       175.1572 deg
Eccentricity:    0.0000199
Arg of perigee:   230.7714 deg
Mean anomaly:     129.3441 deg
Mean motion:   14.23179792 rev/day
Decay rate:        2.0e-07 rev/day^2
Epoch rev:           61997
Checksum:              302

